Weather History for St. Johns, AZ

Change the Weather History Date:

Saturday, February 8, 2014

  Actual Average (KSOW) Record (KSOW)
Temperature  
Mean Temperature 40 °F -  
Max Temperature 53 °F 45 °F 64 °F (2000)
Min Temperature 27 °F 26 °F 3 °F (1989)
Degree Days  
Heating Degree Days 25    
Moisture  
Dew Point 24 °F    
Average Humidity 57    
Maximum Humidity 91    
Minimum Humidity 22    
Precipitation  
Precipitation 0.00 in - - ()
Sea Level Pressure  
Sea Level Pressure 30.13 in    
Wind  
Wind Speed 5 mph (WSW)    
Max Wind Speed 14 mph    
Max Gust Speed 23 mph    
Visibility 10 miles    
Events Rain    
Averages and records for this station are not official NWS values.
T = Trace of Precipitation, MM = Missing Value Source: NWS Daily Summary

Daily Weather History Graph

Daily Weather History Graph

Search for Another Location

Airport:

Trip Planner

Search our weather history database for the weather conditions in past years. The results will help you decide how hot, cold, wet, or windy it might be!

Date:

Astronomy

Feb. 08, 2014 Rise Set
Actual Time 7:09 AM MST 5:54 PM MST
Civil Twilight 6:43 AM MST 6:20 PM MST
Nautical Twilight 6:13 AM MST 6:50 PM MST
Astronomical Twilight 5:44 AM MST 7:19 PM MST
Moon 12:54 PM MST (2/8) 2:21 AM MST (2/8)
Length of Visible Light 11h 36m
Length of Day
10h 44m
Waxing Gibbous, 69% of the Moon is Illuminated
Feb 8
Waxing Gibbous
Feb 14
Full
Feb 22
Last Quarter
Mar 1
New
Mar 8
First Quarter

Hourly Weather History & Observations

Time (MST) Temp. Windchill Dew Point Humidity Pressure Visibility Wind Dir Wind Speed Gust Speed Precip Events Conditions
12:54 AM 28.0 °F 24.2 °F 24.1 °F 85% 30.11 in 10.0 mi ESE 3.5 mph - N/A   Clear
1:54 AM 27.0 °F - 23.0 °F 85% 30.09 in 10.0 mi Calm Calm - N/A   Clear
2:54 AM 25.0 °F 20.7 °F 21.9 °F 88% 30.09 in 8.0 mi SSE 3.5 mph - N/A   Clear
3:54 AM 24.1 °F - 21.9 °F 91% 30.12 in 10.0 mi Calm Calm - N/A   Clear
4:54 AM 26.1 °F 20.5 °F 21.9 °F 84% 30.12 in 10.0 mi South 4.6 mph - N/A   Clear
5:54 AM 23.0 °F 18.4 °F 19.9 °F 88% 30.15 in 10.0 mi SSE 3.5 mph - N/A   Clear
6:54 AM 24.1 °F 19.7 °F 21.0 °F 88% 30.17 in 10.0 mi SE 3.5 mph - N/A   Clear
7:54 AM 24.1 °F - 21.9 °F 91% 30.19 in 10.0 mi Calm Calm - N/A   Clear
8:54 AM 30.9 °F 25.2 °F 26.1 °F 82% 30.20 in 10.0 mi North 5.8 mph - N/A   Clear
9:54 AM 39.9 °F - 27.0 °F 60% 30.19 in 10.0 mi Calm Calm - N/A   Clear
10:54 AM 50.0 °F - 24.1 °F 36% 30.14 in 10.0 mi WNW 8.1 mph 18.4 mph 0.00 in Rain Light Rain
11:54 AM 53.1 °F - 26.1 °F 35% 30.14 in 10.0 mi NW 12.7 mph - 0.00 in   Clear
12:54 PM 55.9 °F - 25.0 °F 30% 30.11 in 10.0 mi WNW 8.1 mph - N/A   Clear
1:54 PM 59.0 °F - 25.0 °F 27% 30.08 in 10.0 mi WNW 11.5 mph 23.0 mph N/A   Clear
2:54 PM 60.1 °F - 24.1 °F 25% 30.07 in 10.0 mi West 8.1 mph - N/A   Clear
3:54 PM 60.1 °F - 21.0 °F 22% 30.06 in 10.0 mi NW 10.4 mph - N/A   Clear
4:54 PM 57.9 °F - 21.0 °F 24% 30.07 in 10.0 mi NW 10.4 mph - N/A   Clear
5:54 PM 52.0 °F - 21.9 °F 31% 30.11 in 10.0 mi NW 6.9 mph - N/A   Clear
6:54 PM 46.0 °F 44.8 °F 21.9 °F 39% 30.14 in 10.0 mi SSE 3.5 mph - N/A   Clear
7:54 PM 43.0 °F 39.5 °F 21.9 °F 43% 30.16 in 10.0 mi SW 5.8 mph - N/A   Clear
8:54 PM 39.9 °F 35.8 °F 21.9 °F 49% 30.14 in 10.0 mi South 5.8 mph - N/A   Clear
9:54 PM 42.1 °F 40.2 °F 23.0 °F 47% 30.11 in 10.0 mi South 3.5 mph - N/A   Clear
10:54 PM 34.0 °F - 21.9 °F 61% 30.12 in 10.0 mi Calm Calm - N/A   Clear
11:54 PM 35.1 °F - 23.0 °F 61% 30.12 in 10.0 mi Calm Calm - N/A   Partly Cloudy